R/V Knorr Calliope CSV data file  (Time stamps are GMT)
Date, Time_GMT, Depth12, Depth35, Air_Temp, WXT5_Ta, WXT5_Pa, dec_lat, dec_lon, EDO_knt, GPS_COG, GPS_SOG, Gyro, IMET_BPR, IMET_SWR, WXT5_Ri, WXT5_Rc, HRH, WXT5_Ua, WXT5_Dm, WXT5_Sm, SBE45C, SBE45S, SBE45T, Salinity, SSCND, Fluorometer, SSTMP, SSV, Wnd_Dir, TWD_5, Wnd_Spd, TWS_5, HdChkSum=52
2008/03/29, 00:00:36, 3031.00, 0.00, 4.37, 4.70, 989.0, 54.1680200, -31.3498780, , 44.90, 11.57, 44.20, 989.93, 0.30, 0.0, 106.05, 66.55, 68.9, 249, 9.0, 36.00770, 34.90590, 7.8747, 34.9059, 36.0077, 89.40, 6.6124, 1477.03, 287.80, 269.4, 13.60, 13.2, 52
2008/03/29, 00:01:35, 3033.00, 0.00, 4.26, 4.70, 989.2, 54.1701970, -31.3456920, , 47.00, 13.34, 45.10, 989.77, 0.50, 0.0, 106.05, 68.41, 70.7, 247, 9.0, 36.00670, 34.90540, 7.8741, 34.9054, 36.0067, 89.40, 6.6096, 1477.02, 282.80, 263.8, 12.03, 12.9, 52
2008/03/29, 00:02:36, 3030.00, 0.00, 4.32, 4.80, 988.9, 54.1724180, -31.3413800, , 57.20, 11.82, 41.30, 989.76, 0.40, 0.0, 106.05, 68.95, 71.0, 249, 10.0, 36.00630, 34.90500, 7.8741, 34.9050, 36.0063, 90.60, 6.6083, 1477.01, 278.00, 261.7, 11.47, 13.8, 52
2008/03/29, 00:03:36, 3031.00, 0.00, 4.18, 4.80, 989.2, 54.1746350, -31.3371300, , 45.70, 10.14, 46.60, 989.53, 0.40, 0.0, 106.05, 68.92, 71.0, 253, 12.4, 36.00050, 34.90420, 7.8685, 34.9042, 36.0005, 90.30, 6.6078, 1477.01, 288.20, 276.3, 11.75, 16.1, 52
2008/03/29, 00:04:36, 3036.00, 0.00, 4.29, 4.80, 988.9, 54.1768300, -31.3329670, , 61.70, 12.36, 43.60, 989.86, 0.30, 0.0, 106.05, 67.97, 70.2, 242, 10.9, 35.99780, 34.90340, 7.8665, 34.9034, 35.9978, 88.80, 6.6092, 1477.01, 288.80, 265.2, 10.78, 14.3, 52
2008/03/29, 00:05:36, 3030.00, 0.00, 4.26, 4.80, 988.9, 54.1790170, -31.3286620, , 61.90, 12.75, 43.20, 989.84, 0.20, 0.0, 106.05, 68.56, 70.8, 249, 9.8, 36.00790, 34.90360, 7.8771, 34.9036, 36.0079, 87.90, 6.6104, 1477.02, 279.00, 263.8, 13.24, 13.0, 52
2008/03/29, 00:06:36, 3020.00, 0.00, 4.26, 4.80, 988.8, 54.1812950, -31.3245220, , 46.90, 11.54, 44.90, 989.64, 0.30, 0.0, 106.05, 68.77, 71.1, 252, 8.7, 35.99550, 34.90170, 7.8657, 34.9017, 35.9955, 88.40, 6.6098, 1477.02, 283.60, 269.1, 14.14, 13.2, 52
2008/03/29, 00:07:36, 3007.00, 0.00, 4.43, 4.80, 989.2, 54.1835870, -31.3201470, , 72.00, 13.24, 47.30, 989.46, 0.40, 0.0, 106.05, 70.18, 72.1, 249, 9.4, 35.99040, 34.89960, 7.8623, 34.8996, 35.9904, 89.70, 6.6075, 1477.00, 285.20, 265.4, 10.43, 12.5, 52
2008/03/29, 00:08:36, 3003.00, 0.00, 4.37, 4.90, 988.5, 54.1857920, -31.3158850, , 42.60, 10.94, 45.30, 989.26, 0.40, 0.0, 106.05, 69.67, 71.6, 245, 14.2, 35.97620, 34.89490, 7.8517, 34.8949, 35.9762, 89.10, 6.6047, 1476.99, 290.10, 273.8, 14.19, 19.3, 52
2008/03/29, 00:09:36, 3005.00, 0.00, 4.35, 4.80, 989.1, 54.1879550, -31.3116870, , 54.80, 11.03, 46.20, 989.59, 0.30, 0.1, 106.05, 67.53, 70.0, 253, 8.3, 35.98380, 34.88950, 7.8653, 34.8895, 35.9838, 89.40, 6.6020, 1476.97, 283.70, 263.8, 13.81, 12.1, 52
2008/03/29, 00:10:36, 2996.00, 0.00, 4.51, 4.80, 989.1, 54.1901950, -31.3074320, , 58.10, 11.29, 45.20, 989.51, 0.50, 0.0, 106.05, 69.82, 72.2, 242, 13.7, 35.97870, 34.88840, 7.8609, 34.8884, 35.9787, 87.90, 6.6001, 1476.96, 274.60, 262.0, 11.93, 17.8, 52
2008/03/29, 00:11:35, 2994.00, 0.00, 4.43, 4.90, 989.1, 54.1924170, -31.3033200, , 36.80, 11.79, 45.30, 989.80, 0.40, 0.1, 106.06, 68.69, 70.9, 243, 11.1, 35.99460, 34.88570, 7.8807, 34.8857, 35.9946, 86.90, 6.5995, 1476.95, 289.60, 267.9, 13.65, 15.5, 52
2008/03/29, 00:12:36, 2994.00, 0.00, 4.29, 4.80, 988.6, 54.1946350, -31.2989800, , 37.20, 11.79, 45.20, 989.18, 0.20, 0.1, 106.06, 68.53, 70.8, 254, 9.1, 35.99290, 34.88540, 7.8792, 34.8854, 35.9929, 86.60, 6.5996, 1476.95, 284.80, 272.6, 14.36, 13.4, 52
2008/03/29, 00:13:36, 3006.00, 0.00, 4.26, 4.80, 988.7, 54.1968650, -31.2946970, , 60.50, 11.42, 42.70, 989.71, 0.20, 0.0, 106.06, 67.45, 70.0, 241, 12.7, 35.99740, 34.88620, 7.8833, 34.8862, 35.9974, 86.00, 6.5998, 1476.95, 287.00, 267.7, 13.20, 16.5, 52
2008/03/29, 00:14:36, 3028.00, 0.00, 4.32, 4.80, 988.8, 54.1991630, -31.2905470, , 37.50, 11.41, 44.20, 989.26, 0.10, 0.1, 106.06, 68.43, 70.7, 257, 10.3, 35.98870, 34.88470, 7.8753, 34.8847, 35.9887, 85.10, 6.5999, 1476.95, 287.00, 277.6, 14.73, 13.7, 52
2008/03/29, 00:15:36, 3028.00, 0.00, 4.32, 4.80, 988.3, 54.2014000, -31.2863400, , 50.10, 11.88, 45.10, 989.75, 0.10, 0.0, 106.06, 68.51, 70.8, 244, 12.3, 35.98380, 34.88410, 7.8706, 34.8841, 35.9838, 84.80, 6.6009, 1476.96, 285.10, 268.2, 12.88, 16.5, 52
2008/03/29, 00:16:36, 3033.00, 0.00, 4.40, 4.80, 988.6, 54.2036770, -31.2820730, , 40.30, 12.68, 43.70, 989.23, 0.40, 0.0, 106.06, 67.89, 70.3, 252, 12.0, 35.98490, 34.88310, 7.8729, 34.8831, 35.9849, 84.50, 6.6018, 1476.95, 286.10, 273.1, 15.81, 16.2, 52
2008/03/29, 00:17:35, 3086.00, 0.00, 4.46, 4.80, 988.8, 54.2058300, -31.2777850, , 26.80, 12.82, 46.80, 989.14, 0.20, 0.0, 106.06, 69.00, 71.3, 250, 9.8, 35.97510, 34.88180, 7.8636, 34.8818, 35.9751, 84.80, 6.6031, 1476.96, 292.60, 275.7, 14.80, 15.5, 52
2008/03/29, 00:18:36, 3078.00, 0.00, 4.32, 4.80, 988.7, 54.2080880, -31.2735430, , 46.20, 13.98, 46.80, 988.93, 0.40, 0.1, 106.07, 68.36, 70.8, 249, 12.5, 35.97980, 34.88170, 7.8688, 34.8817, 35.9798, 83.90, 6.6045, 1476.97, 286.90, 273.4, 14.01, 15.9, 52
2008/03/29, 00:19:36, 2940.00, 0.00, 4.24, 4.80, 989.0, 54.2103180, -31.2692130, , 48.30, 13.40, 45.00, 989.33, 0.30, 0.1, 106.07, 68.12, 70.4, 252, 9.4, 35.98290, 34.88320, 7.8705, 34.8832, 35.9829, 84.50, 6.6064, 1476.98, 286.00, 267.3, 14.29, 13.2, 52
2008/03/29, 00:20:36, 2862.00, 0.00, 4.37, 4.80, 988.8, 54.2124900, -31.2649800, , 65.30, 13.40, 43.90, 989.29, 0.20, 0.0, 106.07, 69.67, 71.8, 237, 12.4, 35.98760, 34.88310, 7.8757, 34.8831, 35.9876, 83.90, 6.6078, 1476.98, 281.40, 260.0, 12.26, 16.0, 52
2008/03/29, 00:21:36, 2841.00, 0.00, 4.24, 4.80, 988.8, 54.2147070, -31.2607980, , 43.30, 12.38, 46.50, 988.96, 0.10, 0.0, 106.07, 69.82, 71.8, 241, 7.9, 35.97870, 34.88140, 7.8678, 34.8814, 35.9787, 84.80, 6.6097, 1476.99, 285.20, 265.8, 15.66, 13.7, 52
2008/03/29, 00:22:36, 2821.00, 0.00, 4.24, 4.80, 988.8, 54.2169070, -31.2564730, , 51.90, 13.25, 43.20, 989.16, 0.00, 0.0, 106.07, 69.23, 71.5, 244, 11.2, 35.97950, 34.88160, 7.8684, 34.8816, 35.9795, 85.40, 6.6116, 1476.99, 282.00, 264.6, 14.69, 16.0, 52
2008/03/29, 00:23:36, 2842.00, 0.00, 4.26, 4.80, 988.6, 54.2191100, -31.2522050, , 55.50, 12.15, 44.50, 989.39, 0.10, 0.0, 106.07, 68.48, 70.8, 243, 10.9, 35.98230, 34.88290, 7.8702, 34.8829, 35.9823, 84.50, 6.6143, 1477.01, 284.00, 263.0, 13.12, 14.3, 52
2008/03/29, 00:24:36, 2886.00, 0.00, 4.49, 4.80, 988.5, 54.2213700, -31.2479950, , 36.30, 12.89, 46.30, 989.45, 0.20, 0.0, 106.07, 69.67, 71.9, 252, 9.8, 35.99540, 34.88190, 7.8853, 34.8819, 35.9954, 85.70, 6.6185, 1477.03, 287.60, 270.7, 12.72, 14.2, 52
2008/03/29, 00:25:36, 2899.00, 0.00, 4.26, 4.80, 988.5, 54.2235300, -31.2437500, , 55.00, 11.42, 47.80, 989.32, 0.10, 0.0, 106.07, 69.00, 71.2, 242, 11.9, 35.98740, 34.88150, 7.8772, 34.8815, 35.9874, 85.40, 6.6243, 1477.05, 290.00, 266.8, 13.75, 16.0, 52
2008/03/29, 00:26:36, 2922.00, 0.00, 4.40, 4.80, 988.8, 54.2257330, -31.2395070, , 44.40, 12.37, 46.00, 989.13, 0.20, 0.0, 106.07, 70.41, 72.4, 249, 10.3, 35.98840, 34.88150, 7.8781, 34.8815, 35.9884, 86.40, 6.6306, 1477.07, 282.80, 265.3, 12.11, 13.6, 52
2008/03/29, 00:27:36, 2967.00, 0.00, 4.49, 4.90, 988.4, 54.2278320, -31.2351630, , 43.30, 12.54, 40.80, 989.00, 0.30, 0.0, 106.07, 70.69, 72.6, 250, 12.2, 35.98820, 34.88200, 7.8775, 34.8820, 35.9882, 86.40, 6.6375, 1477.10, 289.80, 272.9, 12.99, 16.5, 52
2008/03/29, 00:28:35, 3081.00, 0.00, 4.24, 4.90, 988.5, 54.2300070, -31.2310970, , 41.60, 11.35, 45.70, 988.73, 0.30, 0.0, 106.07, 69.95, 72.0, 241, 11.0, 35.99140, 34.88310, 7.8798, 34.8831, 35.9914, 86.00, 6.6448, 1477.13, 294.10, 268.6, 13.86, 15.7, 52
2008/03/29, 00:29:35, 3140.00, 0.00, 4.32, 4.90, 988.6, 54.2321500, -31.2268730, , 38.20, 13.65, 45.80, 989.08, 0.40, 0.0, 106.07, 70.51, 72.5, 252, 8.2, 35.99820, 34.88250, 7.8878, 34.8825, 35.9982, 86.60, 6.6532, 1477.16, 288.00, 268.5, 14.19, 12.2, 52
2008/03/29, 00:30:36, 3083.00, 0.00, 4.51, 4.90, 988.6, 54.2343430, -31.2226680, , 36.10, 11.64, 43.00, 988.96, 0.30, 0.0, 106.07, 71.71, 73.7, 240, 12.1, 35.99970, 34.88320, 7.8888, 34.8832, 35.9997, 86.60, 6.6619, 1477.19, 274.70, 255.8, 12.03, 16.7, 52
2008/03/29, 00:31:36, 3229.00, 0.00, 4.49, 5.00, 988.8, 54.2364250, -31.2186100, , 50.00, 12.55, 45.70, 988.93, 0.40, 0.1, 106.07, 71.86, 73.5, 247, 8.9, 36.00540, 34.88270, 7.8953, 34.8827, 36.0054, 86.90, 6.6712, 1477.23, 287.10, 264.7, 11.95, 12.4, 52
2008/03/29, 00:32:36, 3023.00, 0.00, 4.60, 5.00, 988.4, 54.2386170, -31.2143250, , 39.20, 11.86, 43.50, 989.31, 0.00, 0.0, 106.07, 72.65, 74.4, 248, 11.5, 36.02500, 34.88770, 7.9114, 34.8877, 36.0250, 88.10, 6.6806, 1477.27, 283.80, 271.9, 15.17, 16.9, 52
2008/03/29, 00:33:36, 3026.00, 0.00, 4.40, 5.00, 989.0, 54.2408050, -31.2102670, , 48.40, 12.60, 44.20, 989.10, 0.10, 0.0, 106.07, 72.12, 73.6, 245, 11.8, 36.03290, 34.88710, 7.9206, 34.8871, 36.0329, 89.10, 6.6881, 1477.30, 285.20, 266.1, 14.96, 15.6, 52
2008/03/29, 00:34:36, 3037.00, 0.00, 4.24, 5.00, 988.2, 54.2430280, -31.2060530, , 59.10, 12.12, 47.00, 988.71, 0.10, 0.1, 106.08, 72.63, 74.0, 252, 10.8, 36.03170, 34.88900, 7.9174, 34.8890, 36.0317, 89.40, 6.6936, 1477.32, 288.50, 271.3, 12.77, 13.2, 52
2008/03/29, 00:35:36, 3038.00, 0.00, 4.21, 4.90, 988.2, 54.2451700, -31.2019200, , 58.00, 12.09, 43.90, 989.03, 0.00, 1.8, 106.11, 72.12, 73.7, 244, 11.0, 36.04900, 34.88870, 7.9364, 34.8887, 36.0490, 89.10, 6.6969, 1477.34, 282.70, 261.8, 12.96, 14.5, 52
2008/03/29, 00:36:36, 3036.00, 0.00, 4.29, 4.90, 988.4, 54.2473630, -31.1974870, , 32.40, 12.70, 42.80, 989.01, 0.00, 0.0, 106.11, 73.46, 74.6, 253, 8.4, 36.05320, 34.89210, 7.9375, 34.8921, 36.0532, 88.40, 6.7026, 1477.36, 286.50, 271.9, 15.23, 14.0, 52
2008/03/29, 00:37:36, 3035.00, 0.00, 4.29, 4.90, 988.4, 54.2495050, -31.1933730, , 48.40, 12.88, 45.80, 988.90, 0.10, 0.1, 106.11, 73.26, 74.8, 245, 10.6, 36.06380, 34.89340, 7.9476, 34.8934, 36.0638, 87.20, 6.7073, 1477.38, 278.70, 261.6, 12.50, 14.7, 52
2008/03/29, 00:38:36, 3010.00, 0.00, 4.32, 4.90, 988.5, 54.2516700, -31.1892830, , 57.80, 13.20, 45.40, 988.79, -0.20, 0.0, 106.11, 73.87, 75.2, 240, 13.9, 36.08410, 34.89830, 7.9645, 34.8983, 36.0841, 84.80, 6.7101, 1477.40, 280.20, 264.3, 13.22, 17.9, 52
2008/03/29, 00:39:36, 3015.00, 0.00, 4.32, 4.90, 988.3, 54.2538200, -31.1850170, , 59.50, 12.08, 45.50, 989.12, 0.10, 0.1, 106.11, 74.42, 75.4, 240, 14.2, 36.10010, 34.90060, 7.9794, 34.9006, 36.1001, 83.60, 6.7120, 1477.41, 262.20, 267.0, 8.88, 18.3, 52
2008/03/29, 00:40:36, 3022.00, 0.00, 4.26, 4.90, 988.2, 54.2559570, -31.1808730, , 48.20, 10.36, 46.30, 989.23, 0.10, 0.0, 106.11, 74.32, 75.5, 241, 12.3, 36.12220, 34.90770, 7.9962, 34.9077, 36.1222, 83.60, 6.7141, 1477.42, 285.70, 269.0, 11.91, 15.9, 52
2008/03/29, 00:41:36, 3017.00, 0.00, 4.32, 4.90, 988.4, 54.2581030, -31.1763800, , 53.00, 11.90, 47.20, 988.65, 0.00, 0.0, 106.11, 74.12, 75.4, 241, 13.9, 36.11760, 34.90790, 7.9910, 34.9079, 36.1176, 83.20, 6.7158, 1477.43, 286.40, 271.2, 14.38, 18.9, 52
2008/03/29, 00:42:35, 2997.00, 0.00, 4.40, 4.90, 988.3, 54.2603850, -31.1720970, , 33.40, 11.80, 43.60, 988.92, 0.30, 0.0, 106.12, 74.02, 75.1, 239, 12.4, 36.11420, 34.90950, 7.9857, 34.9095, 36.1142, 83.20, 6.7182, 1477.44, 279.20, 260.2, 15.99, 17.2, 52
2008/03/29, 00:43:36, 2986.00, 0.00, 4.21, 4.80, 988.3, 54.2625780, -31.1677450, , 35.80, 11.59, 47.80, 988.68, 0.10, 0.1, 106.12, 73.82, 75.3, 234, 11.4, 36.11510, 34.91310, 7.9831, 34.9131, 36.1151, 83.00, 6.7206, 1477.46, 286.70, 264.9, 16.30, 17.8, 52
2008/03/29, 00:44:36, 2976.00, 0.00, 4.21, 4.80, 988.4, 54.2647250, -31.1635850, , 39.60, 11.06, 45.90, 988.95, 0.30, 0.0, 106.12, 74.63, 76.1, 247, 12.3, 36.12490, 34.91700, 7.9897, 34.9170, 36.1249, 83.90, 6.7220, 1477.47, 277.80, 268.9, 13.57, 16.7, 52
2008/03/29, 00:45:36, 2978.00, 0.00, 4.29, 4.90, 988.1, 54.2669780, -31.1592220, , 43.60, 12.21, 46.40, 988.66, 0.20, 0.0, 106.12, 73.36, 75.2, 243, 12.3, 36.12840, 34.91680, 7.9938, 34.9168, 36.1284, 81.50, 6.7236, 1477.48, 288.20, 269.2, 14.32, 17.2, 52
2008/03/29, 00:46:36, 2982.00, 0.00, 4.35, 4.80, 988.2, 54.2692230, -31.1549070, , 45.00, 12.50, 45.40, 988.72, 0.20, 0.0, 106.12, 73.03, 74.6, 246, 7.5, 36.12630, 34.91720, 7.9911, 34.9172, 36.1263, 82.70, 6.7249, 1477.48, 281.60, 255.8, 13.04, 11.7, 52
2008/03/29, 00:47:36, 2981.00, 0.00, 4.37, 4.80, 988.2, 54.2715300, -31.1506900, , 42.70, 13.02, 46.30, 988.75, 0.00, 0.0, 106.12, 73.87, 75.8, 248, 9.8, 36.13310, 34.91980, 7.9958, 34.9198, 36.1331, 83.20, 6.7232, 1477.48, 268.00, 267.6, 8.35, 13.8, 52
2008/03/29, 00:48:36, 2987.00, 0.00, 4.32, 4.80, 988.4, 54.2737620, -31.1463350, , 43.70, 12.30, 46.80, 989.19, 0.20, 0.0, 106.12, 73.92, 75.8, 252, 10.7, 36.12970, 34.91830, 7.9937, 34.9183, 36.1297, 86.40, 6.7222, 1477.47, 281.50, 268.9, 12.93, 14.1, 52
2008/03/29, 00:49:36, 3000.00, 0.00, 4.32, 4.80, 988.3, 54.2759520, -31.1419730, , 38.00, 11.48, 43.50, 988.68, 0.10, 0.0, 106.12, 74.65, 76.3, 248, 11.0, 36.12360, 34.91790, 7.9875, 34.9179, 36.1236, 86.60, 6.7216, 1477.47, 284.90, 268.4, 11.51, 14.8, 52
2008/03/29, 00:50:36, 3004.00, 0.00, 4.29, 4.90, 988.1, 54.2781500, -31.1377030, , 60.40, 12.24, 41.50, 988.43, 0.10, 0.0, 106.12, 73.97, 75.5, 249, 9.3, 36.12750, 34.91710, 7.9924, 34.9171, 36.1275, 86.60, 6.7215, 1477.47, 287.50, 267.4, 12.55, 13.1, 52
2008/03/29, 00:51:35, 0.00, 0.00, 4.26, 4.80, 988.2, 54.2804450, -31.1334450, , 33.70, 10.89, 44.30, 988.55, -0.30, 0.0, 106.12, 74.70, 76.3, 244, 13.0, 36.13370, 34.91790, 7.9984, 34.9179, 36.1337, 86.60, 6.7211, 1477.47, 289.70, 271.4, 12.96, 17.4, 52
2008/03/29, 00:52:35, 2832.00, 0.00, 4.29, 4.80, 988.1, 54.2827070, -31.1292300, , 38.60, 11.49, 45.00, 988.64, -0.50, 0.0, 106.12, 75.11, 76.5, 245, 10.0, 36.13420, 34.91850, 7.9984, 34.9185, 36.1342, 86.40, 6.7216, 1477.47, 284.40, 267.3, 13.89, 14.6, 52
2008/03/29, 00:53:35, 2818.00, 0.00, 4.24, 4.80, 988.0, 54.2850550, -31.1249600, , 40.50, 13.00, 45.70, 988.88, -0.30, 0.0, 106.12, 75.28, 76.7, 251, 8.4, 36.14000, 34.92060, 8.0025, 34.9206, 36.1400, 87.20, 6.7205, 1477.47, 283.50, 267.2, 14.94, 13.1, 52
2008/03/29, 00:54:36, 2906.00, 0.00, 4.35, 4.80, 988.0, 54.2873130, -31.1207200, , 39.70, 11.54, 47.90, 988.23, -0.40, 0.0, 106.12, 75.84, 77.3, 249, 12.7, 36.13030, 34.91830, 7.9943, 34.9183, 36.1303, 85.10, 6.7159, 1477.45, 285.10, 272.9, 12.68, 16.2, 52
2008/03/29, 00:55:36, 0.00, 0.00, 4.15, 4.80, 988.2, 54.2896030, -31.1165700, , 38.50, 12.93, 44.50, 988.73, -0.30, 0.1, 106.12, 75.79, 77.4, 245, 11.6, 36.12520, 34.91280, 7.9944, 34.9128, 36.1252, 82.70, 6.7097, 1477.42, 287.90, 270.3, 14.99, 17.1, 52
2008/03/29, 00:56:36, 3023.00, 0.00, 4.04, 4.80, 988.0, 54.2917820, -31.1124450, , 40.20, 11.09, 44.30, 988.42, -0.30, 0.0, 106.12, 76.16, 77.9, 246, 10.7, 36.12630, 34.91460, 7.9937, 34.9146, 36.1263, 83.20, 6.7043, 1477.40, 288.60, 268.6, 13.11, 15.0, 52
2008/03/29, 00:57:36, 3025.00, 0.00, 4.07, 4.70, 988.0, 54.2940420, -31.1081900, , 42.20, 12.53, 46.70, 988.14, -0.60, 0.0, 106.12, 76.47, 78.0, 242, 10.8, 36.13780, 34.91390, 8.0067, 34.9139, 36.1378, 83.60, 6.6996, 1477.38, 283.60, 264.7, 12.98, 14.7, 52
2008/03/29, 00:58:36, 3030.00, 0.00, 4.12, 4.70, 988.0, 54.2963350, -31.1037180, , 47.70, 11.91, 43.30, 988.66, -0.40, 0.0, 106.12, 76.82, 78.5, 254, 10.0, 36.12650, 34.91610, 7.9924, 34.9161, 36.1265, 83.00, 6.6951, 1477.36, 280.90, 270.8, 13.27, 13.1, 52
2008/03/29, 00:59:36, 0.00, 0.00, 4.24, 4.70, 987.8, 54.2986330, -31.0995230, , 48.90, 11.18, 45.70, 988.31, -0.30, 0.0, 106.12, 76.87, 79.0, 252, 9.6, 36.12740, 34.91470, 7.9948, 34.9147, 36.1274, 85.10, 6.6897, 1477.34, 283.30, 268.4, 12.29, 13.0, 52
2008/03/29, 01:00:36, 2710.00, 0.00, 4.01, 4.70, 987.8, 54.3008980, -31.0952920, , 43.80, 14.23, 45.80, 988.13, -0.30, 0.0, 106.12, 76.72, 78.8, 240, 12.2, 36.13220, 34.91300, 8.0016, 34.9130, 36.1322, 82.70, 6.6838, 1477.32, 290.20, 269.2, 13.90, 17.8, 52
2008/03/29, 01:01:36, 2711.00, 0.00, 4.24, 4.70, 987.9, 54.3032020, -31.0909830, , 48.80, 13.04, 44.10, 988.94, -0.30, 0.0, 106.12, 76.99, 78.9, 244, 11.7, 36.12130, 34.90920, 7.9937, 34.9092, 36.1213, 83.00, 6.6752, 1477.28, 281.90, 264.0, 12.08, 15.2, 52
2008/03/29, 01:02:36, 2722.00, 0.00, 4.07, 4.70, 987.3, 54.3054170, -31.0867050, , 37.10, 11.97, 40.70, 988.04, -0.20, 0.0, 106.12, 76.97, 79.4, 238, 12.9, 36.10010, 34.90230, 7.9778, 34.9023, 36.1001, 83.90, 6.6648, 1477.23, 287.10, 267.8, 14.13, 18.4, 52
2008/03/29, 01:03:36, 2722.00, 0.00, 4.07, 4.70, 987.3, 54.3076920, -31.0825370, , 43.50, 13.19, 49.20, 988.49, -0.20, 0.2, 106.12, 77.09, 79.1, 244, 11.0, 36.09190, 34.90000, 7.9713, 34.9000, 36.0919, 84.50, 6.6544, 1477.18, 283.70, 267.3, 12.99, 15.1, 52
2008/03/29, 01:04:36, 2717.00, 0.00, 4.07, 4.70, 988.1, 54.3098630, -31.0783620, , 42.60, 12.97, 46.20, 988.30, 0.00, 0.2, 106.13, 77.09, 79.1, 247, 10.7, 36.09130, 34.89630, 7.9744, 34.8963, 36.0913, 84.80, 6.6447, 1477.14, 281.50, 267.0, 14.72, 15.3, 52
2008/03/29, 01:05:36, 2736.00, 0.00, 4.21, 4.70, 987.9, 54.3121200, -31.0741380, , 31.60, 11.94, 46.30, 988.32, -0.10, 0.3, 106.13, 77.44, 79.6, 240, 12.3, 36.08050, 34.89660, 7.9624, 34.8966, 36.0805, 86.00, 6.6364, 1477.11, 284.60, 266.2, 14.34, 17.4, 52
2008/03/29, 01:06:36, 2800.00, 0.00, 4.07, 4.70, 987.8, 54.3144070, -31.0699970, , 43.00, 10.74, 46.50, 988.36, -0.30, 0.2, 106.14, 77.24, 79.6, 266, 7.6, 36.07620, 34.89540, 7.9589, 34.8954, 36.0762, 87.90, 6.6290, 1477.08, 288.50, 278.0, 14.39, 10.7, 52
2008/03/29, 01:07:36, 2839.00, 0.00, 3.98, 4.70, 987.5, 54.3167220, -31.0657050, , 53.60, 11.86, 45.90, 987.95, -0.10, 0.2, 106.14, 77.34, 79.7, 240, 10.9, 36.07050, 34.89430, 7.9539, 34.8943, 36.0705, 87.20, 6.6222, 1477.05, 279.80, 259.5, 11.50, 14.0, 52
2008/03/29, 01:08:36, 2918.00, 0.00, 4.29, 4.70, 988.0, 54.3189580, -31.0613320, , 44.70, 12.50, 41.40, 988.46, -0.10, 0.0, 106.14, 77.79, 79.8, 248, 10.3, 36.06070, 34.89130, 7.9464, 34.8913, 36.0607, 87.90, 6.6161, 1477.03, 284.20, 272.8, 13.76, 14.6, 52
2008/03/29, 01:09:36, 2994.00, 0.00, 4.21, 4.70, 987.2, 54.3212330, -31.0572250, , 44.40, 12.30, 41.80, 988.46, 0.10, 0.2, 106.15, 77.72, 80.4, 244, 11.9, 36.04830, 34.89010, 7.9342, 34.8901, 36.0483, 88.10, 6.6103, 1477.00, 284.30, 266.9, 12.31, 16.3, 52
2008/03/29, 01:10:36, 3000.00, 0.00, 4.24, 4.70, 987.5, 54.3234780, -31.0530720, , 42.60, 11.91, 44.40, 987.83, 0.20, 0.0, 106.15, 77.72, 80.2, 243, 13.8, 36.03530, 34.88710, 7.9232, 34.8871, 36.0353, 88.40, 6.6053, 1476.97, 285.20, 269.3, 13.85, 18.9, 52
2008/03/29, 01:11:36, 3135.00, 0.00, 4.26, 4.70, 987.3, 54.3258250, -31.0489170, , 49.00, 12.41, 46.50, 988.01, -0.10, 0.0, 106.15, 77.79, 80.5, 248, 8.8, 36.01640, 34.88390, 7.9060, 34.8839, 36.0164, 87.90, 6.6012, 1476.96, 286.40, 268.3, 13.84, 13.2, 52
2008/03/29, 01:12:36, 3143.00, 0.00, 4.26, 4.80, 987.4, 54.3280170, -31.0445820, , 43.70, 11.56, 43.50, 987.97, 0.10, 0.1, 106.15, 78.39, 81.2, 247, 11.7, 36.00500, 34.88240, 7.8953, 34.8824, 36.0050, 87.60, 6.5979, 1476.94, 279.00, 265.8, 13.05, 16.1, 52
2008/03/29, 01:13:36, 3132.00, 0.00, 4.35, 4.80, 987.7, 54.3302100, -31.0404270, , 65.50, 12.94, 44.60, 987.88, 0.40, 0.4, 106.16, 77.72, 80.6, 248, 10.1, 35.99760, 34.88140, 7.8883, 34.8814, 35.9976, 87.90, 6.5963, 1476.94, 283.40, 262.8, 12.97, 13.4, 52
2008/03/29, 01:14:35, 3146.00, 0.00, 4.29, 4.80, 987.3, 54.3324920, -31.0362420, , 37.00, 10.98, 47.50, 987.83, 0.40, 0.5, 106.17, 77.89, 80.8, 259, 8.2, 35.99250, 34.88130, 7.8829, 34.8813, 35.9925, 88.10, 6.5969, 1476.94, 286.50, 274.2, 12.80, 11.6, 52
2008/03/29, 01:15:35, 3061.00, 0.00, 4.37, 4.80, 987.1, 54.3346700, -31.0321650, , 50.20, 11.15, 43.50, 988.09, 0.40, 1.3, 106.19, 78.47, 81.4, 239, 11.5, 35.99010, 34.88010, 7.8815, 34.8801, 35.9901, 87.60, 6.5975, 1476.94, 279.90, 257.4, 10.36, 14.8, 52
2008/03/29, 01:16:36, 3053.00, 0.00, 4.29, 4.80, 987.5, 54.3369550, -31.0280580, , 47.20, 12.85, 46.80, 987.90, 0.50, 1.1, 106.21, 78.44, 81.1, 244, 9.7, 35.99370, 34.88260, 7.8828, 34.8826, 35.9937, 87.90, 6.5976, 1476.94, 283.00, 263.0, 13.48, 13.9, 52
2008/03/29, 01:17:36, 3049.00, 0.00, 4.37, 4.90, 987.5, 54.3392750, -31.0239550, , 54.10, 11.51, 45.40, 988.13, 0.40, 1.1, 106.23, 78.84, 81.7, 246, 13.1, 35.98970, 34.87800, 7.8831, 34.8780, 35.9897, 87.90, 6.5963, 1476.93, 280.60, 267.3, 11.07, 16.1, 52
2008/03/29, 01:18:36, 3028.00, 0.00, 4.35, 4.90, 987.5, 54.3415950, -31.0196480, , 36.20, 12.73, 44.70, 988.08, 0.30, 2.9, 106.27, 78.42, 81.5, 242, 11.5, 35.97830, 34.87810, 7.8707, 34.8781, 35.9783, 87.60, 6.5942, 1476.92, 283.90, 265.0, 14.78, 16.7, 52
2008/03/29, 01:19:36, 2890.00, 0.00, 4.29, 4.80, 987.7, 54.3438780, -31.0154370, , 35.40, 12.89, 43.50, 988.59, 0.40, 0.8, 106.29, 78.54, 81.2, 253, 9.0, 35.97230, 34.87760, 7.8648, 34.8776, 35.9723, 87.20, 6.5912, 1476.91, 290.10, 277.9, 17.33, 15.2, 52
2008/03/29, 01:20:36, 2698.00, 0.00, 4.37, 4.80, 986.9, 54.3462320, -31.0111900, , 36.80, 13.29, 42.30, 988.08, 0.40, 1.0, 106.31, 79.09, 82.3, 258, 7.0, 35.97450, 34.87830, 7.8665, 34.8783, 35.9745, 87.20, 6.5877, 1476.90, 283.60, 267.1, 12.74, 11.3, 52
2008/03/29, 01:21:36, 2669.00, 0.00, 4.37, 4.90, 987.3, 54.3484500, -31.0069150, , 53.00, 12.20, 45.00, 987.83, 0.60, 0.9, 106.32, 79.42, 82.5, 246, 12.8, 35.97940, 34.87660, 7.8734, 34.8766, 35.9794, 86.60, 6.5842, 1476.88, 287.30, 271.0, 11.47, 16.3, 52
2008/03/29, 01:22:36, 2641.00, 0.00, 4.29, 4.90, 987.0, 54.3507570, -31.0026500, , 54.30, 11.80, 45.40, 987.57, 0.50, 2.5, 106.37, 79.29, 82.3, 251, 11.0, 35.98360, 34.87810, 7.8765, 34.8781, 35.9836, 86.00, 6.5808, 1476.87, 280.30, 264.4, 12.37, 13.8, 52
2008/03/29, 01:23:35, 2653.00, 0.00, 4.35, 4.80, 987.1, 54.3530780, -30.9984500, , 41.50, 13.30, 45.30, 988.14, 0.40, 0.8, 106.38, 79.61, 82.2, 240, 10.3, 35.98530, 34.87680, 7.8796, 34.8768, 35.9853, 86.00, 6.5796, 1476.87, 280.40, 261.3, 15.55, 16.2, 52
2008/03/29, 01:24:36, 2683.00, 0.00, 4.35, 4.80, 987.6, 54.3554170, -30.9941350, , 51.00, 12.00, 47.10, 988.12, 0.40, 0.8, 106.39, 79.47, 82.6, 248, 10.5, 35.98800, 34.87870, 7.8806, 34.8787, 35.9880, 84.80, 6.5797, 1476.86, 281.50, 266.5, 13.16, 14.4, 52
2008/03/29, 01:25:36, 2650.00, 0.00, 4.40, 4.80, 987.2, 54.3576700, -30.9897820, , 41.30, 13.06, 44.80, 988.16, 0.50, 1.1, 106.41, 79.94, 82.8, 248, 10.6, 35.98480, 34.87960, 7.8762, 34.8796, 35.9848, 83.90, 6.5798, 1476.86, 280.10, 268.8, 15.30, 16.0, 52
2008/03/29, 01:26:36, 2643.00, 0.00, 4.37, 4.80, 987.6, 54.3600150, -30.9855070, , 39.90, 11.75, 46.70, 987.76, 0.30, 1.7, 106.44, 79.81, 82.8, 249, 9.4, 35.96950, 34.87510, 7.8643, 34.8751, 35.9695, 83.60, 6.5808, 1476.87, 284.10, 266.0, 14.66, 14.4, 52
2008/03/29, 01:27:35, 2650.00, 0.00, 4.37, 4.80, 987.2, 54.3624230, -30.9811070, , 45.60, 12.66, 46.10, 987.73, 0.30, 0.8, 106.46, 80.14, 83.3, 249, 12.1, 35.96640, 34.87540, 7.8606, 34.8754, 35.9664, 83.00, 6.5810, 1476.87, 282.50, 268.4, 12.82, 16.8, 52
2008/03/29, 01:28:36, 2656.00, 0.00, 4.43, 4.80, 987.2, 54.3646800, -30.9768720, , 41.90, 11.80, 44.80, 987.60, 0.30, 1.7, 106.49, 80.06, 83.2, 246, 11.7, 35.96430, 34.87550, 7.8582, 34.8755, 35.9643, 84.80, 6.5814, 1476.87, 290.60, 269.6, 12.78, 15.6, 52
2008/03/29, 01:29:36, 2691.00, 0.00, 4.26, 4.70, 987.3, 54.3668120, -30.9726400, , 58.90, 12.19, 46.40, 987.70, 0.40, 2.4, 106.53, 79.99, 83.1, 248, 11.7, 35.96360, 34.87650, 7.8564, 34.8765, 35.9636, 86.40, 6.5825, 1476.88, 288.60, 269.2, 12.77, 14.7, 52
2008/03/29, 01:30:36, 2693.00, 0.00, 4.10, 4.70, 987.0, 54.3689500, -30.9684080, , 53.10, 11.83, 44.00, 987.89, 0.30, 6.5, 106.64, 79.99, 82.9, 246, 11.4, 35.96990, 34.87510, 7.8646, 34.8751, 35.9699, 87.20, 6.5836, 1476.88, 283.00, 265.7, 14.03, 15.7, 52
2008/03/29, 01:31:36, 2695.00, 0.00, 3.98, 4.60, 987.4, 54.3711330, -30.9643350, , 46.00, 12.65, 45.90, 987.39, 0.30, 3.9, 106.70, 80.43, 82.5, 250, 7.9, 35.97170, 34.87340, 7.8683, 34.8734, 35.9717, 86.60, 6.5854, 1476.89, 284.70, 264.1, 15.60, 12.4, 52